TimePST,TemperatureF,Dew PointF,Humidity,Sea Level PressureIn,VisibilityMPH,Wind Direction,Wind SpeedMPH,Gust SpeedMPH,PrecipitationIn,Events,Conditions,WindDirDegrees,DateUTC
12:05 AM,24.8,19.4,80,29.94,10.0,North,-9999.0,-,N/A,,Scattered Clouds,0,2011-11-20 08:05:00
12:55 AM,21.9,19.9,92,29.99,10.0,NNW,3.5,-,N/A,,Clear,340,2011-11-20 08:55:00
1:55 AM,21.0,18.0,88,29.99,10.0,Calm,Calm,-,N/A,,Scattered Clouds,0,2011-11-20 09:55:00
2:09 AM,21.2,19.4,93,29.95,10.0,Calm,Calm,-,N/A,,Mostly Cloudy,0,2011-11-20 10:09:00
2:55 AM,25.0,23.0,92,29.99,10.0,Calm,Calm,-,N/A,,Overcast,0,2011-11-20 10:55:00
3:55 AM,25.0,21.9,88,29.98,10.0,Calm,Calm,-,N/A,,Overcast,0,2011-11-20 11:55:00
4:55 AM,26.1,21.9,84,29.99,10.0,Calm,Calm,-,N/A,,Overcast,0,2011-11-20 12:55:00
5:05 AM,26.6,21.2,80,29.95,10.0,Calm,Calm,-,N/A,,Overcast,0,2011-11-20 13:05:00
5:55 AM,26.1,24.1,92,30.00,9.0,Calm,Calm,-,N/A,,Overcast,0,2011-11-20 13:55:00
6:35 AM,26.6,24.8,93,29.96,9.0,NW,3.5,-,N/A,,Overcast,320,2011-11-20 14:35:00
6:55 AM,26.1,24.1,92,30.01,9.0,NW,4.6,-,N/A,,Overcast,320,2011-11-20 14:55:00
7:55 AM,26.1,24.1,92,30.01,9.0,West,3.5,-,N/A,,Overcast,270,2011-11-20 15:55:00
8:55 AM,27.0,21.0,78,30.03,10.0,Calm,Calm,-,N/A,,Overcast,0,2011-11-20 16:55:00
9:55 AM,28.0,21.9,78,30.05,10.0,Calm,Calm,-,N/A,,Overcast,0,2011-11-20 17:55:00
10:55 AM,28.9,21.9,75,30.05,10.0,Calm,Calm,-,N/A,,Overcast,0,2011-11-20 18:55:00
12:55 PM,30.0,21.9,72,30.02,10.0,ESE,4.6,-,N/A,,Overcast,110,2011-11-20 20:55:00
1:45 PM,30.2,23.0,75,29.96,10.0,ESE,3.5,-,N/A,,Overcast,120,2011-11-20 21:45:00
1:55 PM,30.0,23.0,75,30.01,10.0,SE,3.5,-,N/A,,Overcast,130,2011-11-20 21:55:00
2:55 PM,30.0,24.1,79,30.00,10.0,ESE,4.6,-,N/A,,Overcast,120,2011-11-20 22:55:00
3:55 PM,30.0,24.1,79,30.00,10.0,Calm,Calm,-,N/A,,Overcast,0,2011-11-20 23:55:00
4:55 PM,30.0,24.1,79,30.00,10.0,Calm,Calm,-,N/A,,Overcast,0,2011-11-21 00:55:00
5:33 PM,30.2,24.8,80,29.95,10.0,Calm,Calm,-,N/A,,Overcast,0,2011-11-21 01:33:00
5:55 PM,30.0,24.1,79,30.00,10.0,Calm,Calm,-,N/A,,Overcast,0,2011-11-21 01:55:00
6:55 PM,28.9,24.1,82,30.00,10.0,Calm,Calm,-,N/A,,Overcast,0,2011-11-21 02:55:00
7:55 PM,28.9,24.1,82,29.99,10.0,WNW,3.5,-,N/A,,Overcast,290,2011-11-21 03:55:00
8:55 PM,30.0,24.1,79,29.98,10.0,Calm,Calm,-,N/A,,Overcast,0,2011-11-21 04:55:00
9:55 PM,28.9,24.1,82,29.97,10.0,Calm,Calm,-,N/A,,Overcast,0,2011-11-21 05:55:00
10:41 PM,28.4,24.8,86,29.92,10.0,Calm,Calm,-,N/A,,Overcast,0,2011-11-21 06:41:00
10:55 PM,28.9,24.1,82,29.96,10.0,Calm,Calm,-,N/A,,Overcast,0,2011-11-21 06:55:00
11:55 PM,28.9,23.0,78,29.96,10.0,Calm,Calm,-,N/A,,Overcast,0,2011-11-21 07:55:00